{"data":{"norad_id":61900,"epoch":"2026-09-22T22:46:50.506752Z","epoch_age_seconds":90399,"freshness":"FRESH","line1":"1 61900U 24205G   26265.94919568  .00004444  00000+0  26312-3 0  9993","line2":"2 61900  97.4048 332.7889 0019221 168.1784 191.9902 15.11766858102923","mean_motion":15.11766858,"eccentricity":0.0019221,"inclination_deg":97.4048,"raan_deg":332.7889,"arg_perigee_deg":168.1784,"mean_anomaly_deg":191.9902,"bstar":0.00026312,"rev_number":10292,"period_min":95.252782688004,"perigee_km":517.53190162341,"apogee_km":544.09128179967,"semimajor_km":6908.9485917115,"source":"CELESTRAK","updated_at":"2026-09-23T09:00:21.098389Z"}}